Погода в Рудном

Россия / Белгородская область     50°46′48″N   37°53′12″E
темп.,
°C
ветер,
м/с
пор.,
м/с
влажн.,
%
обл.,
%
осадки,
мм/ч
давл.,
гПа
погр.,
м
17 апреля, сб
сб1700:00+8ююв227143 0.0 101824
03:00+7ююв2382100 0.8 1018153
06:00+7ссв119399 1.2 101820
09:00+9юз227193 1.6 1018554
12:00+11юз455580 1.0 10181546
15:00+13юз4539100 1.1 10182314
18:00+11юз455633 0.1 10181389
21:00+6юз36735 0.1 1020130
18 апреля, вс
вс1800:00+7юз3679100 0.1 1019286
03:00+6зюз2680100 0.1 1020325
06:00+6ююз1281100 0.0 102076
09:00+8юз357099 0.1 1020974
12:00+11зюз465572 0.0 10201215
15:00+12юз2348100 0.1 10201548
18:00+11юв2458100 0.0 1019491
21:00+9вюв3766100 0.0 1020188
19 апреля, пн
пн1900:00+9юв4865100 0.0 1020159
03:00+8в3571100 0.1 1019112
06:00+8в3673100 0.0 1019206
09:00+10вюв4663100 0.0 10191206
12:00+11вюв466287 0.1 10171048
15:00+13вюв5653100 0.2 10161510
18:00+11в3572100 0.1 1015417
21:00+10в4881100 0.2 1015547
20 апреля, вт
вт2000:00+9всв51094100 0.6 1012602
03:00+9в5994100 1.0 1011607
06:00+9в5996100 0.3 1009513
09:00+10в61295100 0.4 1006545
12:00+11в101894100 7.4 1002937
15:00+14юв132381100 8.3 9961612
18:00+13ю1016802 5.4 996916
21:00+12ю10177849 6.3 9981182
21 апреля, ср
ср2100:00+9ю111785100 1.1 9981536
03:00+8ююз101686100 2.0 10001288
06:00+6ююз91490100 0.2 10051242
09:00+7юз81388100 0.3 10091136
12:00+10юз8137199 0.2 10121427
15:00+11зюз8116093 0.3 10141661
18:00+11зюз486675 0.1 10161209
21:00+9юз2276100 0.1 101916